| time (UTC) | temp F | wind direction | speed knots | gust knots | rain 1hr in | rain 24hr in | rain mn in | humidity % | barometer mb |
| 20260506014522 | 60 | 120 | 0.0 | 0.9 | 0.01 | 0.02 | 0.02 | 88 | 1010.7 |
| 20260506013021 | 60 | 120 | 0.0 | 0.9 | 0.01 | 0.02 | 0.02 | 88 | 1010.6 |
| 20260506011524 | 60 | 205 | 0.0 | 0.9 | 0.01 | 0.02 | 0.02 | 90 | 1010.6 |
| 20260506010021 | 60 | 241 | 0.0 | 1.7 | 0.00 | 0.01 | 0.01 | 89 | 1010.8 |
| 20260506004525 | 60 | 265 | 0.0 | 0.9 | 0.00 | 0.01 | 0.01 | 92 | 1010.4 |
| 20260506003021 | 60 | 158 | 0.0 | 2.6 | 0.01 | 0.01 | 0.01 | 91 | 1010.3 |
| 20260506001519 | 61 | 290 | 0.0 | 0.0 | 0.01 | 0.01 | 0.01 | 91 | 1009.5 |
| 20260506000021 | 61 | 290 | 0.0 | 0.9 | 0.01 | 0.01 | 0.01 | 88 | 1008.9 |
| 20260505234515 | 63 | 108 | 0.0 | 7.0 | 0.01 | 0.01 | 0.01 | 81 | 1008.5 |
| 20260505233014 | 65 | 60 | 0.0 | 2.6 | 0.00 | 0.00 | 0.00 | 73 | 1009.3 |
| 20260505231513 | 67 | 264 | 0.0 | 1.7 | 0.00 | 0.00 | 0.00 | 67 | 1009.2 |
| 20260505230021 | 68 | 285 | 3.5 | 9.6 | 0.00 | 0.00 | 0.00 | 59 | 1009.4 |
| 20260505224512 | 69 | 255 | 2.6 | 7.0 | 0.00 | 0.00 | 0.00 | 53 | 1008.1 |
| 20260505223014 | 69 | 68 | 1.7 | 7.8 | 0.00 | 0.00 | 0.00 | 53 | 1006.7 |
| 20260505221511 | 70 | 221 | 2.6 | 8.7 | 0.00 | 0.00 | 0.00 | 52 | 1006.5 |
| 20260505220010 | 71 | 287 | 3.5 | 14.8 | 0.00 | 0.00 | 0.00 | 51 | 1006.2 |
| 20260505214510 | 72 | 134 | 4.3 | 12.2 | 0.00 | 0.00 | 0.00 | 49 | 1006.1 |
| 20260505213009 | 72 | 213 | 3.5 | 11.3 | 0.00 | 0.00 | 0.00 | 50 | 1006.1 |
| 20260505211508 | 71 | 205 | 4.3 | 7.8 | 0.00 | 0.00 | 0.00 | 51 | 1006.0 |
| 20260505210007 | 73 | 141 | 2.6 | 7.8 | 0.00 | 0.00 | 0.00 | 49 | 1005.9 |
| 20260505204506 | 73 | 148 | 2.6 | 13.0 | 0.00 | 0.00 | 0.00 | 50 | 1006.1 |
| 20260505203005 | 73 | 111 | 2.6 | 8.7 | 0.00 | 0.00 | 0.00 | 48 | 1006.1 |
| 20260505201505 | 74 | 152 | 2.6 | 10.4 | 0.00 | 0.00 | 0.00 | 47 | 1006.0 |
| 20260505200001 | 75 | 202 | 5.2 | 17.4 | 0.00 | 0.00 | 0.00 | 45 | 1006.4 |
| 20260505194621 | 75 | 109 | 2.6 | 12.2 | 0.00 | 0.00 | 0.00 | 45 | 1006.3 |
| 20260505193059 | 75 | 98 | 1.7 | 9.6 | 0.00 | 0.00 | 0.00 | 45 | 1006.6 |
| 20260505191557 | 75 | 117 | 3.5 | 11.3 | 0.00 | 0.00 | 0.00 | 45 | 1006.7 |
| 20260505190053 | 76 | 259 | 3.5 | 9.6 | 0.00 | 0.00 | 0.00 | 45 | 1007.0 |
| 20260505184550 | 76 | 211 | 2.6 | 12.2 | 0.00 | 0.00 | 0.00 | 44 | 1007.2 |
| 20260505183049 | 75 | 167 | 4.3 | 9.6 | 0.00 | 0.00 | 0.00 | 46 | 1007.3 |
| 20260505181552 | 76 | 183 | 3.5 | 10.4 | 0.00 | 0.00 | 0.00 | 45 | 1007.6 |
| 20260505180046 | 74 | 111 | 6.1 | 13.0 | 0.00 | 0.00 | 0.00 | 47 | 1007.6 |
| 20260505174552 | 76 | 146 | 2.6 | 12.2 | 0.00 | 0.00 | 0.00 | 46 | 1007.6 |
| 20260505173043 | 77 | 132 | 3.5 | 7.8 | 0.00 | 0.00 | 0.00 | 44 | 1007.8 |
| 20260505171541 | 78 | 158 | 3.5 | 9.6 | 0.00 | 0.00 | 0.00 | 42 | 1008.0 |
| 20260505170039 | 79 | 176 | 2.6 | 11.3 | 0.00 | 0.00 | 0.00 | 39 | 1008.2 |
| 20260505164535 | 78 | 257 | 3.5 | 7.8 | 0.00 | 0.00 | 0.00 | 40 | 1008.6 |
| 20260505163031 | 77 | 180 | 3.5 | 9.6 | 0.00 | 0.00 | 0.00 | 40 | 1008.9 |
| 20260505161529 | 75 | 112 | 2.6 | 9.6 | 0.00 | 0.00 | 0.00 | 45 | 1009.3 |
| 20260505153020 | 73 | 207 | 4.3 | 11.3 | 0.00 | 0.00 | 0.00 | 44 | 1010.0 |
| 20260505151520 | 72 | 187 | 1.7 | 7.0 | 0.00 | 0.00 | 0.00 | 46 | 1010.3 |
| 20260505130112 | 63 | 251 | 1.7 | 6.1 | 0.00 | 0.00 | 0.00 | 53 | 1011.0 |
| 20260505124601 | 63 | 122 | 1.7 | 4.3 | 0.00 | 0.00 | 0.00 | 53 | 1010.7 |
| 20260505123052 | 62 | 67 | 0.9 | 3.5 | 0.00 | 0.00 | 0.00 | 54 | 1010.5 |
| 20260505121551 | 61 | 250 | 0.0 | 4.3 | 0.00 | 0.00 | 0.00 | 56 | 1010.7 |
| 20260505120058 | 59 | 346 | 1.7 | 5.2 | 0.00 | 0.00 | 0.00 | 59 | 1010.7 |
| 20260505114542 | 58 | 234 | 0.9 | 7.0 | 0.00 | 0.00 | 0.00 | 61 | 1010.8 |
| 20260505113044 | 56 | 193 | 0.0 | 5.2 | 0.00 | 0.00 | 0.00 | 68 | 1011.1 |
| 20260505111540 | 54 | 115 | 0.0 | 1.7 | 0.00 | 0.00 | 0.00 | 72 | 1010.9 |
| 20260505101533 | 50 | 133 | 0.0 | 0.9 | 0.00 | 0.00 | 0.00 | 76 | 1011.2 |
| 20260505100034 | 50 | 143 | 0.0 | 0.9 | 0.00 | 0.00 | 0.00 | 75 | 1010.9 |
| 20260505094535 | 49 | 139 | 0.0 | 2.6 | 0.00 | 0.00 | 0.00 | 76 | 1011.0 |
| 20260505093031 | 49 | 201 | 0.0 | 1.7 | 0.00 | 0.00 | 0.00 | 75 | 1011.1 |
| 20260505091531 | 49 | 199 | 0.0 | 0.0 | 0.00 | 0.00 | 0.00 | 76 | 1011.1 |
| 20260505090035 | 49 | 199 | 0.0 | 0.9 | 0.00 | 0.00 | 0.00 | 76 | 1011.1 |
| 20260505084625 | 49 | 52 | 0.0 | 0.9 | 0.00 | 0.00 | 0.00 | 75 | 1011.2 |
| 20260505083025 | 49 | 52 | 0.0 | 0.9 | 0.00 | 0.00 | 0.00 | 75 | 1011.3 |
| 20260505081534 | 50 | 276 | 0.0 | 0.9 | 0.00 | 0.00 | 0.00 | 73 | 1011.5 |
| 20260505080021 | 51 | 276 | 0.0 | 0.9 | 0.00 | 0.00 | 0.00 | 72 | 1011.5 |
| 20260505074519 | 52 | 155 | 0.0 | 1.7 | 0.00 | 0.00 | 0.00 | 70 | 1011.3 |
| 20260505073022 | 52 | 8 | 0.0 | 0.9 | 0.00 | 0.00 | 0.00 | 69 | 1011.3 |
| 20260505071539 | 53 | 299 | 0.0 | 1.7 | 0.00 | 0.00 | 0.00 | 67 | 1011.1 |
| 20260505070017 | 53 | 65 | 0.0 | 2.6 | 0.00 | 0.00 | 0.00 | 68 | 1011.2 |
| 20260505064522 | 52 | 150 | 0.0 | 1.7 | 0.00 | 0.00 | 0.00 | 71 | 1011.2 |
| 20260505063015 | 51 | 226 | 0.0 | 2.6 | 0.00 | 0.00 | 0.00 | 72 | 1011.2 |
| 20260505061515 | 51 | 188 | 0.0 | 1.7 | 0.00 | 0.00 | 0.00 | 72 | 1011.1 |
| 20260505060012 | 51 | 155 | 0.0 | 0.0 | 0.00 | 0.00 | 0.00 | 70 | 1011.1 |
| 20260505054508 | 52 | 155 | 0.0 | 0.0 | 0.00 | 0.00 | 0.00 | 68 | 1011.1 |
| 20260505053007 | 53 | 155 | 0.0 | 0.0 | 0.00 | 0.00 | 0.00 | 65 | 1011.2 |
| 20260505051508 | 54 | 195 | 0.0 | 0.9 | 0.00 | 0.00 | 0.00 | 64 | 1011.2 |
| 20260505041600 | 53 | 224 | 0.0 | 3.5 | 0.00 | 0.00 | 0.00 | 66 | 1010.8 |
| 20260505040105 | 53 | 85 | 0.0 | 2.6 | 0.00 | 0.00 | 0.00 | 66 | 1010.8 |
| 20260505034555 | 51 | 333 | 0.9 | 4.3 | 0.00 | 0.00 | 0.00 | 69 | 1010.6 |
| 20260505033055 | 48 | 128 | 0.0 | 1.7 | 0.00 | 0.00 | 0.00 | 77 | 1010.6 |
| 20260505031556 | 48 | 208 | 0.0 | 0.9 | 0.00 | 0.00 | 0.00 | 78 | 1010.7 |
| 20260505030056 | 49 | 209 | 0.0 | 0.0 | 0.00 | 0.00 | 0.00 | 77 | 1010.3 |
| 20260505024653 | 50 | 209 | 0.0 | 0.9 | 0.00 | 0.00 | 0.00 | 76 | 1010.4 |
| 20260505023057 | 50 | 209 | 0.0 | 0.9 | 0.00 | 0.00 | 0.00 | 74 | 1010.4 |
| 20260505021554 | 50 | 163 | 0.0 | 1.7 | 0.00 | 0.00 | 0.00 | 75 | 1010.4 |
| 20260505020056 | 51 | 129 | 0.0 | 0.9 | 0.00 | 0.00 | 0.00 | 71 | 1010.1 |